Change the Weather History Date:

Monday, April 22, 2013

  Actual Average (KSAT) Record (KSAT)
Temperature  
Mean Temperature 68 °F 71 °F  
Max Temperature 80 °F 82 °F 96 °F (1963)
Min Temperature 58 °F 60 °F 43 °F (1993)
Degree Days  
Heating Degree Days 0 1  
Month to date heating degree days 37  
Since 1 July heating degree days 1492  
Cooling Degree Days 4 7  
Month to date cooling degree days 109  
Year to date cooling degree days 200  
Growing Degree Days 18 (Base 50)    
Moisture  
Dew Point 56 °F    
Average Humidity 68    
Maximum Humidity 91    
Minimum Humidity 42    
Precipitation  
Precipitation 0.00 in 0.08 in 2.07 in (1978)
Month to date precipitation 1.41  
Year to date precipitation 7.27  
Snow  
Snow 0.00 in - - ()
Month to date snowfall  
Since 1 July snowfall  
Snow Depth -    
Sea Level Pressure  
Sea Level Pressure 30.01 in    
Wind  
Wind Speed 10 mph (South)    
Max Wind Speed 18 mph    
Max Gust Speed 25 mph    
Visibility 10 miles    
Events      
T = Trace of Precipitation, MM = Missing Value Source: NWS Daily Summary

Daily Weather History Graph

Daily Weather History Graph

Search for Another Location

Airport or City:

Trip Planner

Search our weather history database for the weather conditions in past years. The results will help you decide how hot, cold, wet, or windy it might be!

Date:

Astronomy

Apr. 22, 2013 Rise Set
Actual Time 7:00 AM CDT 8:07 PM CDT
Civil Twilight 6:35 AM CDT 8:32 PM CDT
Nautical Twilight 6:06 AM CDT 9:02 PM CDT
Astronomical Twilight 5:35 AM CDT 9:33 PM CDT
Moon 5:10 PM CDT (4/22) 4:42 AM CDT (4/22)
Length of Visible Light 13h 56m
Length of Day
13h 06m
Waxing Gibbous, 88% of the Moon is Illuminated
Apr 22
Waxing Gibbous
Apr 25
Full
May 2
Last Quarter
May 9
New
May 17
First Quarter

Hourly Weather History & Observations

Time (CDT) Temp. Dew Point Humidity Pressure Visibility Wind Dir Wind Speed Gust Speed Precip Events Conditions
12:15 AM 62.1 °F 55.8 °F 80% 30.09 in 10.0 mi ESE 4.6 mph - N/A   Clear
12:35 AM 61.9 °F 55.9 °F 81% 30.10 in 10.0 mi SSE 5.8 mph - N/A   Mostly Cloudy
12:55 AM 62.1 °F 56.3 °F 81% 30.09 in 10.0 mi SSE 5.8 mph - N/A   Overcast
1:15 AM 62.2 °F 55.9 °F 80% 30.09 in 10.0 mi SSE 8.1 mph 19.6 mph N/A   Overcast
1:35 AM 61.7 °F 55.4 °F 80% 30.09 in 10.0 mi SSE 13.8 mph 20.7 mph N/A   Overcast
1:55 AM 61.3 °F 55.4 °F 81% 30.09 in 10.0 mi SSE 11.5 mph 19.6 mph N/A   Overcast
2:15 AM 60.8 °F 55.0 °F 81% 30.09 in 10.0 mi SSE 9.2 mph 18.4 mph N/A   Overcast
2:35 AM 60.3 °F 55.0 °F 83% 30.08 in 10.0 mi SE 9.2 mph 16.1 mph N/A   Overcast
2:55 AM 60.3 °F 54.9 °F 82% 30.08 in 10.0 mi SSE 10.4 mph - N/A   Overcast
3:15 AM 60.1 °F 54.7 °F 82% 30.07 in 10.0 mi SSE 10.4 mph - N/A   Overcast
3:35 AM 59.9 °F 54.5 °F 82% 30.07 in 10.0 mi South 9.2 mph 17.3 mph N/A   Overcast
3:55 AM 59.5 °F 54.7 °F 84% 30.06 in 10.0 mi SSE 11.5 mph 17.3 mph N/A   Overcast
4:15 AM 59.2 °F 54.5 °F 84% 30.06 in 10.0 mi South 9.2 mph 16.1 mph N/A   Overcast
4:35 AM 59.0 °F 54.7 °F 86% 30.06 in 10.0 mi South 9.2 mph - N/A   Overcast
4:55 AM 59.0 °F 54.9 °F 86% 30.06 in 10.0 mi SSE 11.5 mph 16.1 mph N/A   Overcast
5:15 AM 58.5 °F 55.4 °F 90% 30.06 in 7.0 mi SSE 12.7 mph 18.4 mph N/A   Overcast
5:35 AM 58.3 °F 55.6 °F 91% 30.06 in 7.0 mi South 9.2 mph - N/A   Overcast
5:55 AM 58.5 °F 55.4 °F 90% 30.07 in 7.0 mi South 6.9 mph - N/A   Overcast
6:15 AM 58.5 °F 55.4 °F 90% 30.07 in 7.0 mi SSE 6.9 mph - N/A   Overcast
6:35 AM 58.6 °F 55.4 °F 89% 30.07 in 10.0 mi South 9.2 mph - N/A   Overcast
6:55 AM 59.0 °F 54.9 °F 86% 30.07 in 10.0 mi South 8.1 mph - N/A   Overcast
7:15 AM 59.2 °F 54.5 °F 84% 30.08 in 10.0 mi South 11.5 mph 16.1 mph N/A   Overcast
7:35 AM 59.4 °F 54.1 °F 83% 30.08 in 10.0 mi South 10.4 mph 17.3 mph N/A   Overcast
7:55 AM 59.5 °F 54.5 °F 83% 30.09 in 10.0 mi South 8.1 mph - N/A   Overcast
8:15 AM 59.9 °F 53.8 °F 80% 30.09 in 10.0 mi South 12.7 mph 18.4 mph N/A   Overcast
8:35 AM 60.1 °F 54.1 °F 81% 30.10 in 10.0 mi South 10.4 mph - N/A   Overcast
8:55 AM 60.1 °F 54.7 °F 82% 30.10 in 10.0 mi South 11.5 mph - N/A   Overcast
9:15 AM 60.3 °F 55.2 °F 83% 30.10 in 10.0 mi South 11.5 mph - N/A   Overcast
9:35 AM 60.3 °F 55.6 °F 85% 30.10 in 10.0 mi SSW 11.5 mph 17.3 mph N/A   Overcast
9:55 AM 61.5 °F 55.2 °F 80% 30.10 in 10.0 mi South 8.1 mph - N/A   Overcast
10:15 AM 62.2 °F 55.4 °F 78% 30.10 in 10.0 mi South 11.5 mph 17.3 mph N/A   Overcast
10:35 AM 62.6 °F 55.8 °F 78% 30.10 in 10.0 mi SSW 11.5 mph - N/A   Overcast
10:55 AM 63.3 °F 56.5 °F 78% 30.10 in 10.0 mi SSW 15.0 mph 18.4 mph N/A   Overcast
11:15 AM 64.2 °F 57.0 °F 77% 30.10 in 10.0 mi SSW 10.4 mph 16.1 mph N/A   Overcast
11:35 AM 65.5 °F 57.2 °F 75% 30.09 in 10.0 mi South 12.7 mph 18.4 mph N/A   Overcast
11:55 AM 66.6 °F 57.4 °F 72% 30.08 in 10.0 mi SSW 13.8 mph 23.0 mph N/A   Overcast
12:15 PM 68.0 °F 57.4 °F 69% 30.08 in 10.0 mi South 15.0 mph 19.6 mph N/A   Overcast
12:35 PM 68.4 °F 57.4 °F 68% 30.07 in 10.0 mi SSW 17.3 mph - N/A   Overcast
12:55 PM 69.3 °F 57.4 °F 66% 30.06 in 10.0 mi SSW 13.8 mph 21.9 mph N/A   Overcast
1:15 PM 71.6 °F 57.9 °F 62% 30.05 in 10.0 mi SSW 15.0 mph 25.3 mph N/A   Overcast
1:35 PM 73.2 °F 57.6 °F 58% 30.03 in 10.0 mi SSW 18.4 mph 23.0 mph N/A   Mostly Cloudy
1:55 PM 72.9 °F 57.0 °F 57% 30.02 in 10.0 mi SW 17.3 mph 21.9 mph N/A   Mostly Cloudy
2:15 PM 74.7 °F 57.9 °F 56% 30.01 in 10.0 mi SSW 17.3 mph 20.7 mph N/A   Scattered Clouds
2:35 PM 74.8 °F 57.7 °F 55% 30.00 in 10.0 mi SSW 18.4 mph 24.2 mph N/A   Scattered Clouds
2:55 PM 75.7 °F 57.7 °F 53% 29.99 in 10.0 mi South 16.1 mph 25.3 mph N/A   Scattered Clouds
3:15 PM 75.9 °F 57.4 °F 52% 29.97 in 10.0 mi SW 18.4 mph - N/A   Clear
3:35 PM 76.3 °F 57.0 °F 51% 29.97 in 10.0 mi SSW 11.5 mph 21.9 mph N/A   Clear
3:55 PM 77.4 °F 57.4 °F 50% 29.95 in 10.0 mi SSW 13.8 mph - N/A   Clear
4:15 PM 77.9 °F 56.3 °F 47% 29.94 in 10.0 mi South 12.7 mph 23.0 mph N/A   Clear
4:35 PM 78.3 °F 55.4 °F 45% 29.93 in 10.0 mi South 15.0 mph 24.2 mph N/A   Clear
4:55 PM 79.2 °F 56.1 °F 45% 29.92 in 10.0 mi SSW 12.7 mph 19.6 mph N/A   Clear
5:15 PM 79.2 °F 54.7 °F 43% 29.91 in 10.0 mi SSW 13.8 mph 20.7 mph N/A   Clear
5:35 PM 79.3 °F 54.7 °F 42% 29.90 in 10.0 mi South 10.4 mph 21.9 mph N/A   Clear
5:55 PM 79.5 °F 54.9 °F 42% 29.90 in 10.0 mi South 16.1 mph - N/A   Clear
6:15 PM 79.5 °F 55.2 °F 43% 29.90 in 10.0 mi South 12.7 mph - N/A   Clear
6:35 PM 79.0 °F 54.7 °F 43% 29.89 in 10.0 mi SSW 16.1 mph 21.9 mph N/A   Clear
6:55 PM 78.8 °F 54.5 °F 43% 29.89 in 10.0 mi South 15.0 mph 20.7 mph N/A   Clear
7:15 PM 77.9 °F 55.2 °F 45% 29.89 in 10.0 mi South 9.2 mph 18.4 mph N/A   Clear
7:35 PM 76.8 °F 56.1 °F 49% 29.89 in 10.0 mi South 11.5 mph - N/A   Clear
7:55 PM 75.6 °F 55.8 °F 50% 29.89 in 10.0 mi South 10.4 mph - N/A   Clear
8:15 PM 73.6 °F 55.8 °F 54% 29.90 in 10.0 mi South 6.9 mph - N/A   Clear
8:35 PM 73.4 °F 55.8 °F 54% 29.90 in 10.0 mi South 6.9 mph - N/A   Clear
8:55 PM 72.1 °F 55.9 °F 57% 29.90 in 10.0 mi South 5.8 mph - N/A   Clear
9:15 PM 72.0 °F 55.8 °F 57% 29.91 in 10.0 mi South 6.9 mph - N/A   Clear
9:35 PM 71.4 °F 55.8 °F 58% 29.91 in 10.0 mi SSE 5.8 mph - N/A   Clear
9:55 PM 71.4 °F 55.8 °F 58% 29.91 in 10.0 mi SSE 4.6 mph - N/A   Clear
10:15 PM 70.2 °F 55.8 °F 60% 29.91 in 10.0 mi SSE 4.6 mph - N/A   Clear
10:35 PM 70.9 °F 55.6 °F 58% 29.91 in 10.0 mi South 5.8 mph - N/A   Clear
10:55 PM 70.9 °F 55.6 °F 58% 29.91 in 10.0 mi SSE 6.9 mph - N/A   Clear
11:15 PM 71.1 °F 55.6 °F 58% 29.91 in 10.0 mi SSE 11.5 mph 17.3 mph N/A   Clear
11:35 PM 70.2 °F 55.8 °F 60% 29.91 in 10.0 mi SSE 12.7 mph 17.3 mph N/A   Clear
11:55 PM 68.9 °F 57.2 °F 66% 29.91 in 10.0 mi South 10.4 mph 18.4 mph N/A   Clear